DW8482 Tortoreto Alto IT current weather conditions

sailwx.info

Wind from 059 at 4 knots gusting 6

Air temperature 23.3° C
Dewpoint 18.4° C

Last reported at 2014-Jul-28 09:41 UTC.
Time now 2014-Jul-28 10:28 UTC

Location: N 42°48' E 013°54'.
View on Google Maps.

See reports from other nearby stations

  
Tides and Currents Weather Stations Pressure Air Temp Water Temp Dewpoint Dewpoint Depression Visibility Wind Speed Wind Dir Waves Ship Positions
date/time (UTC)wind fromknots sea level pressurealtimeterstation pressurevisibilityair tempwater tempwave heightnotes
2014-Jul-28 09:41 059 4 gusting 6 23.3
2014-Jul-28 09:31 049 4 gusting 6 23.3
2014-Jul-28 09:21 019 4 gusting 5 23.9
2014-Jul-28 09:11 063 1 gusting 5 23.9
2014-Jul-28 09:01 030 5 gusting 6 23.9
2014-Jul-28 08:51 003 5 gusting 6 23.3
2014-Jul-28 08:41 315 1 gusting 6 23.3
2014-Jul-28 08:31 354 2 gusting 6 23.3
2014-Jul-28 08:21 330 2 gusting 6 23.3
2014-Jul-28 08:11 338 0 gusting 4 22.8
2014-Jul-28 08:01 324 1 gusting 4 23.3
2014-Jul-28 07:51 343 1 gusting 4 22.8
2014-Jul-28 07:41 245 1 gusting 4 22.8
2014-Jul-28 07:31 342 1 gusting 4 22.8
2014-Jul-28 07:21 356 1 gusting 4 22.8
2014-Jul-28 07:11 352 1 gusting 2 22.8
2014-Jul-28 07:01 347 1 gusting 4 22.2
2014-Jul-28 06:51 239 1 gusting 2 21.7
2014-Jul-28 06:41 275 21.7
2014-Jul-28 06:31 230 1 gusting 2 21.1
2014-Jul-28 06:21 238 1 gusting 4 20.6
2014-Jul-28 06:11 260 1 gusting 4 20.0
2014-Jul-28 06:01 245 1 gusting 4 20.0
2014-Jul-28 05:51 245 1 gusting 4 20.0
2014-Jul-28 05:41 252 1 gusting 2 20.0
2014-Jul-28 05:31 231 1 gusting 1 20.0
2014-Jul-28 05:21 228 1 gusting 4 19.4
2014-Jul-28 05:11 220 1 gusting 2 20.0
2014-Jul-28 05:01 227 1 gusting 1 20.0
2014-Jul-28 04:51 253 1 gusting 1 20.0
2014-Jul-28 04:41 284 1 gusting 1 19.4
2014-Jul-28 04:31 265 1 gusting 2 19.4
2014-Jul-28 04:21 251 1 gusting 2 18.9
2014-Jul-28 04:11 224 2 gusting 2 18.3
2014-Jul-28 04:01 229 1 gusting 2 17.8
2014-Jul-28 03:51 235 1 gusting 2 17.8
2014-Jul-28 03:41 202 2 gusting 4 17.8
2014-Jul-28 03:31 226 2 gusting 4 18.3
2014-Jul-28 03:21 220 0 gusting 1 18.3
2014-Jul-28 03:11 218 0 gusting 4 17.8
2014-Jul-28 03:01 229 1 gusting 4 18.3
2014-Jul-28 02:51 241 1 gusting 4 18.3
2014-Jul-28 02:41 240 2 gusting 2 18.9
2014-Jul-28 02:31 237 1 gusting 4 18.9
2014-Jul-28 02:21 236 1 gusting 4 18.3
2014-Jul-28 02:11 245 1 gusting 4 18.3
2014-Jul-28 02:01 243 0 gusting 1 18.9
2014-Jul-28 01:51 331 0 gusting 1 18.9
2014-Jul-28 01:41 262 1 gusting 2 18.3
2014-Jul-28 01:31 255 1 gusting 4 18.3
2014-Jul-28 01:21 256 1 gusting 2 18.3
2014-Jul-28 01:11 223 1 gusting 2 17.8
2014-Jul-28 01:01 242 1 gusting 4 18.3
2014-Jul-28 00:52 221 1 gusting 2 18.9
2014-Jul-28 00:41 223 1 gusting 1 18.9
2014-Jul-28 00:31 300 0 gusting 1 18.9
2014-Jul-28 00:21 248 1 gusting 2 18.3
2014-Jul-28 00:11 221 1 gusting 4 18.3
2014-Jul-28 00:01 239 1 gusting 2 18.3
2014-Jul-27 23:51 244 1 gusting 4 18.3
2014-Jul-27 23:41 244 1 gusting 1 18.3
2014-Jul-27 23:31 350 0 gusting 1 18.3
2014-Jul-27 23:22 228 0 gusting 4 18.3
2014-Jul-27 23:11 224 1 gusting 2 18.3
2014-Jul-27 23:02 227 1 gusting 4 18.3
2014-Jul-27 22:51 180 0 gusting 1 18.3
2014-Jul-27 22:42 205 0 gusting 1 18.3
2014-Jul-27 22:32 156 1 gusting 1 18.3
2014-Jul-27 22:21 229 1 gusting 2 18.3
2014-Jul-27 22:12 196 0 gusting 2 18.3
2014-Jul-27 22:02 162 0 gusting 2 18.3
2014-Jul-27 21:51 146 0 gusting 1 18.3
2014-Jul-27 21:42 146 0 gusting 1 18.3
2014-Jul-27 21:32 172 0 gusting 1 18.3
2014-Jul-27 21:22 152 1 gusting 1 18.9
2014-Jul-27 21:11 244 1 gusting 1 18.9
2014-Jul-27 21:02 207 1 gusting 2 18.9
2014-Jul-27 20:51 205 0 gusting 4 18.9
2014-Jul-27 20:42 208 1 gusting 2 18.9
2014-Jul-27 20:32 214 0 gusting 2 18.9
2014-Jul-27 20:22 190 1 gusting 2 18.9
2014-Jul-27 20:11 219 0 gusting 1 18.9
2014-Jul-27 20:02 201 0 gusting 1 18.9
2014-Jul-27 19:51 190 1 gusting 1 18.9
2014-Jul-27 19:42 218 0 gusting 1 19.4
2014-Jul-27 19:32 249 1 gusting 1 19.4
2014-Jul-27 19:22 223 1 gusting 2 19.4
2014-Jul-27 19:12 231 2 gusting 2 19.4
2014-Jul-27 19:02 242 1 gusting 2 19.4
2014-Jul-27 18:52 248 1 gusting 1 19.4
2014-Jul-27 18:41 238 1 gusting 1 20.0
2014-Jul-27 18:32 225 0 gusting 1 20.0
2014-Jul-27 18:22 229 0 gusting 1 20.0
2014-Jul-27 18:12 238 0 gusting 0 20.0
2014-Jul-27 18:02 338 20.0
2014-Jul-27 17:52 338 0 gusting 1 20.0
2014-Jul-27 17:42 334 0 gusting 0 20.0
2014-Jul-27 17:32 321 0 gusting 2 20.0
2014-Jul-27 17:22 339 0 gusting 1 20.0
2014-Jul-27 17:12 350 1 gusting 4 20.6
2014-Jul-27 17:02 025 1 gusting 4 20.6
2014-Jul-27 16:52 325 0 gusting 2 20.6
2014-Jul-27 16:42 358 1 gusting 1 20.6
2014-Jul-27 16:31 001 1 gusting 4 20.6
2014-Jul-27 16:22 348 0 gusting 2 20.6
2014-Jul-27 16:12 328 1 gusting 1 20.6
2014-Jul-27 16:02 221 0 gusting 1 20.0
2014-Jul-27 15:52 169 1 gusting 4 20.0
2014-Jul-27 15:42 273 2 gusting 4 20.6
2014-Jul-27 15:32 261 2 gusting 5 20.0
2014-Jul-27 15:22 226 0 gusting 4 20.0
2014-Jul-27 15:12 239 3 gusting 6 19.4
2014-Jul-27 15:02 257 2 gusting 5 19.4
2014-Jul-27 14:52 196 2 gusting 5 19.4
2014-Jul-27 14:42 250 2 gusting 4 19.4
2014-Jul-27 14:32 346 1 gusting 4 18.9
2014-Jul-27 14:22 333 1 gusting 2 19.4
2014-Jul-27 14:12 338 2 gusting 4 19.4
2014-Jul-27 14:02 274 0 gusting 2 19.4
2014-Jul-27 13:52 003 1 gusting 4 19.4
2014-Jul-27 13:42 309 1 gusting 4 19.4
2014-Jul-27 13:32 084 1 gusting 2 20.0
2014-Jul-27 13:22 056 0 gusting 1 20.0
2014-Jul-27 13:12 172 0 gusting 1 20.0
2014-Jul-27 13:02 068 20.0
2014-Jul-27 12:52 051 1 gusting 5 20.0
2014-Jul-27 12:42 032 4 gusting 6 20.0
2014-Jul-27 12:32 058 4 gusting 6 20.0
2014-Jul-27 12:22 050 2 gusting 8 20.0
2014-Jul-27 12:12 024 6 gusting 7 20.0
2014-Jul-27 12:02 068 5 gusting 7 20.6
2014-Jul-27 11:52 064 4 gusting 8 20.6
2014-Jul-27 11:42 043 5 gusting 8 20.6
2014-Jul-27 11:32 023 6 gusting 10 20.6
2014-Jul-27 11:22 058 4 gusting 10 21.1
2014-Jul-27 11:12 050 4 gusting 8 21.7
2014-Jul-27 11:02 001 6 gusting 13 22.2
2014-Jul-27 10:52 012 6 gusting 12 22.2
2014-Jul-27 10:42 089 6 gusting 11 22.2
2014-Jul-27 10:32 035 6 gusting 8 22.2
2014-Jul-27 10:22 028 6 gusting 10 22.2
2014-Jul-27 10:12 033 6 gusting 12 22.8
2014-Jul-27 10:02 062 4 gusting 7 22.2
2014-Jul-27 09:52 046 4 gusting 8 22.2
2014-Jul-27 09:42 026 6 gusting 6 22.2
2014-Jul-27 09:32 018 6 gusting 7 22.8
2014-Jul-27 09:22 045 3 gusting 5 23.3
2014-Jul-27 09:12 049 3 gusting 4 22.8
2014-Jul-27 09:02 080 2 gusting 4 22.8
2014-Jul-27 08:52 015 1 gusting 6 22.8
2014-Jul-27 08:42 326 0 gusting 2 22.2
2014-Jul-27 08:32 174 1 gusting 2 22.2
2014-Jul-27 08:22 242 0 gusting 2 21.7
2014-Jul-27 08:12 123 1 gusting 2 21.7
2014-Jul-27 08:02 027 0 gusting 1 21.7
2014-Jul-27 07:52 027 0 gusting 1 21.1
2014-Jul-27 07:42 283 1 gusting 4 20.0
2014-Jul-27 07:32 256 1 gusting 4 20.0
2014-Jul-27 07:22 231 2 gusting 2 19.4
2014-Jul-27 07:12 249 2 gusting 4 19.4
2014-Jul-27 07:02 259 4 gusting 5 19.4
2014-Jul-27 06:52 248 1 gusting 1 19.4
2014-Jul-27 06:42 229 0 gusting 4 19.4
2014-Jul-27 06:32 200 0 gusting 1 18.9
2014-Jul-27 06:22 225 0 gusting 1 18.9
2014-Jul-27 06:12 267 0 gusting 1 18.9
2014-Jul-27 06:02 321 1 gusting 1 18.9
2014-Jul-27 05:52 252 0 gusting 1 18.9
2014-Jul-27 05:42 329 0 gusting 0 18.3
2014-Jul-27 05:32 315 0 gusting 0 18.3
2014-Jul-27 05:22 334 0 gusting 0 18.3
2014-Jul-27 05:12 18.3
2014-Jul-27 05:02 022 18.3
2014-Jul-27 04:52 022 18.3
2014-Jul-27 04:42 053 0 gusting 1 18.3
2014-Jul-27 04:32 065 0 gusting 1 18.3
2014-Jul-27 04:22 013 1 gusting 1 18.3
2014-Jul-27 04:12 129 18.3
2014-Jul-27 04:02 045 18.3
2014-Jul-27 03:52 045 0 gusting 1 18.3
2014-Jul-27 03:42 031 2 gusting 2 18.3
2014-Jul-27 03:32 009 0 gusting 1 18.3
2014-Jul-27 03:22 045 18.3
2014-Jul-27 03:12 058 1 gusting 2 18.9
2014-Jul-27 03:02 355 0 gusting 2 18.9
2014-Jul-27 02:52 18.9
2014-Jul-27 02:42 010 2 gusting 4 19.4
2014-Jul-27 02:32 202 19.4
2014-Jul-27 02:22 034 19.4
2014-Jul-27 02:12 003 0 gusting 0 19.4
2014-Jul-27 02:02 202 20.0
2014-Jul-27 01:52 170 20.0
2014-Jul-27 01:42 166 20.0
2014-Jul-27 01:32 194 19.4
2014-Jul-27 01:22 202 0 gusting 0 19.4
2014-Jul-27 01:12 225 0 gusting 0 19.4
2014-Jul-27 01:02 225 0 gusting 1 20.0
2014-Jul-27 00:52 225 0 gusting 0 19.4
2014-Jul-27 00:42 202 20.0
2014-Jul-27 00:32 202 0 gusting 1 19.4
2014-Jul-27 00:22 211 0 gusting 1 19.4
2014-Jul-27 00:12 225 0 gusting 1 19.4
2014-Jul-27 00:02 245 0 gusting 1 19.4
2014-Jul-26 23:52 213 1 gusting 1 19.4
2014-Jul-26 23:42 206 1 gusting 1 19.4
2014-Jul-26 23:32 248 0 gusting 1 19.4
2014-Jul-26 23:22 233 0 gusting 1 19.4
2014-Jul-26 23:12 202 0 gusting 1 18.9
2014-Jul-26 23:02 244 1 gusting 1 18.9
2014-Jul-26 22:52 200 0 gusting 1 18.9
2014-Jul-26 22:42 292 18.9
2014-Jul-26 22:32 210 0 gusting 1 18.9
2014-Jul-26 22:22 198 1 gusting 1 18.9
2014-Jul-26 22:12 199 0 gusting 1 18.9
2014-Jul-26 22:02 214 1 gusting 1 18.9
2014-Jul-26 21:52 198 1 gusting 4 18.9
2014-Jul-26 21:42 18.9
2014-Jul-26 21:32 224 0 gusting 2 19.4
2014-Jul-26 21:22 332 1 gusting 4 19.4
2014-Jul-26 21:12 268 2 gusting 4 18.9
2014-Jul-26 21:02 315 1 gusting 2 19.4
2014-Jul-26 20:52 310 4 gusting 6 19.4
2014-Jul-26 20:42 300 1 gusting 2 19.4
2014-Jul-26 20:32 040 0 gusting 6 19.4
2014-Jul-26 20:22 343 2 gusting 6 19.4
2014-Jul-26 20:12 348 4 gusting 6 19.4
2014-Jul-26 20:02 346 3 gusting 13 19.4
2014-Jul-26 19:52 006 6 gusting 17 19.4
2014-Jul-26 19:42 010 8 gusting 17 20.6
2014-Jul-26 19:32 049 8 gusting 14 21.1
2014-Jul-26 19:22 348 7 gusting 15 21.7
2014-Jul-26 19:12 351 6 gusting 15 22.2
2014-Jul-26 19:02 358 2 gusting 8 23.3
2014-Jul-26 18:52 293 2 gusting 4 23.3
2014-Jul-26 18:42 328 2 gusting 5 23.3
2014-Jul-26 18:32 295 1 gusting 4 23.3
2014-Jul-26 18:22 058 1 gusting 4 23.9
2014-Jul-26 18:12 23.9
2014-Jul-26 18:02 335 1 gusting 4 23.9
2014-Jul-26 17:52 338 1 gusting 5 23.9
2014-Jul-26 17:42 353 1 gusting 5 23.9
2014-Jul-26 17:32 019 4 gusting 6 23.9
2014-Jul-26 17:22 006 2 gusting 6 24.4
2014-Jul-26 17:12 012 5 gusting 6 24.4
2014-Jul-26 17:02 042 1 gusting 6 25.0
2014-Jul-26 16:52 016 4 gusting 4 25.0
2014-Jul-26 16:42 027 1 gusting 4 25.6
2014-Jul-26 16:32 011 4 gusting 5 25.6
2014-Jul-26 16:22 109 0 gusting 1 26.1
2014-Jul-26 16:12 072 1 gusting 2 25.6
2014-Jul-26 16:02 007 0 gusting 5 25.6
2014-Jul-26 15:52 021 1 gusting 7 25.6
2014-Jul-26 15:42 071 4 gusting 6 25.6
2014-Jul-26 15:32 022 5 gusting 10 25.6
2014-Jul-26 15:22 019 7 gusting 8 25.6
2014-Jul-26 15:12 021 2 gusting 6 25.6
2014-Jul-26 15:02 004 6 gusting 8 25.0
2014-Jul-26 14:52 009 4 gusting 6 24.4
2014-Jul-26 14:42 030 4 gusting 5 24.4
2014-Jul-26 14:32 017 2 gusting 6 24.4
2014-Jul-26 14:22 002 5 gusting 6 25.0
2014-Jul-26 14:12 012 2 gusting 8 25.0
2014-Jul-26 14:02 046 4 gusting 6 24.4
2014-Jul-26 13:52 069 4 gusting 6 24.4
2014-Jul-26 13:42 140 3 gusting 8 25.0
2014-Jul-26 13:32 053 4 gusting 5 24.4
2014-Jul-26 13:22 008 2 gusting 7 24.4
2014-Jul-26 13:12 040 5 gusting 8 23.9
2014-Jul-26 13:02 027 1 gusting 5 23.3
2014-Jul-26 12:52 112 5 gusting 5 23.3
2014-Jul-26 12:42 112 5 gusting 5 23.3
2014-Jul-26 12:32 028 5 gusting 7 23.3
2014-Jul-26 12:22 069 4 gusting 6 23.3
2014-Jul-26 12:12 041 4 gusting 6 23.3
2014-Jul-26 12:02 037 2 gusting 6 23.3
2014-Jul-26 11:52 014 3 gusting 6 23.3
2014-Jul-26 11:42 020 4 gusting 7 23.9
2014-Jul-26 11:32 090 5 gusting 6 24.4
2014-Jul-26 11:22 082 3 gusting 6 25.0
2014-Jul-26 11:12 071 4 gusting 5 24.4
2014-Jul-26 11:02 035 5 gusting 7 24.4
2014-Jul-26 10:52 029 5 gusting 8 24.4
2014-Jul-26 10:42 030 5 gusting 11 23.9
2014-Jul-26 10:32 006 5 gusting 8 24.4
2014-Jul-26 10:22 054 5 gusting 8 24.4